This is the latest recevied weather packets stored in our database for station/object KO4DYK. If no packets are shown the sender has not sent any weather packets the latest 10 day(s).
| Time | Temp. | Humidity | Pressure | Rain* | Wind** | Luminosity | Snow |
|---|---|---|---|---|---|---|---|
| 1777477234 | 17.78° C | 99% | 1019.4 hPa | 0 mm | - | 406 W/m² | - |
| 1777476930 | 17.78° C | 99% | 1019.3 hPa | 0 mm | - | 218 W/m² | - |
| 1777476628 | 17.78° C | 99% | 1019.2 hPa | 0 mm | - | 324 W/m² | - |
| 1777476325 | 17.78° C | 99% | 1019.4 hPa | 0 mm | - | 181 W/m² | - |
| 1777476020 | 18.33° C | 99% | 1019.2 hPa | 0 mm | - | 143 W/m² | - |
| 1777475716 | 18.33° C | 99% | 1019.2 hPa | 0 mm | - | 203 W/m² | - |
| 1777475413 | 17.78° C | 99% | 1019.1 hPa | 0 mm | - | 294 W/m² | - |
| 1777475108 | 17.78° C | 99% | 1019 hPa | 0 mm | - | 249 W/m² | - |
| 1777474805 | 17.78° C | 99% | 1018.9 hPa | 0 mm | - | 240 W/m² | - |
| 1777474501 | 17.78° C | 99% | 1018.8 hPa | 0 mm | - | 207 W/m² | - |
| 1777474197 | 17.78° C | 99% | 1018.6 hPa | 0 mm | - | 280 W/m² | - |
| 1777473895 | 17.22° C | 99% | 1018.5 hPa | 0 mm | - | 252 W/m² | - |
| 1777473592 | 17.22° C | 99% | 1018.8 hPa | 0 mm | - | 199 W/m² | - |
| 1777473288 | 17.22° C | 99% | 1018.6 hPa | 0 mm | - | 137 W/m² | - |
| 1777472984 | 17.78° C | 99% | 1018.9 hPa | 0 mm | - | 56 W/m² | - |
| 1777472681 | 17.78° C | 99% | 1018.6 hPa | 0 mm | - | 32 W/m² | - |
| 1777472377 | 18.89° C | 99% | 1018.6 hPa | 0 mm | - | 41 W/m² | - |
| 1777472076 | 19.44° C | 99% | 1018.2 hPa | 0 mm | - | 112 W/m² | - |
| 1777471770 | 18.89° C | 99% | 1018.5 hPa | 0 mm | - | 130 W/m² | - |
| 1777471467 | 18.89° C | 99% | 1018.4 hPa | 0 mm | - | 66 W/m² | - |
| 1777471164 | 18.89° C | 99% | 1018.2 hPa | 0 mm | - | 67 W/m² | - |
| 1777470861 | 18.89° C | 99% | 1018.2 hPa | 0 mm | - | 53 W/m² | - |
| 1777470558 | 19.44° C | 99% | 1018 hPa | 0 mm | - | 58 W/m² | - |
| 1777470254 | 19.44° C | 99% | 1018 hPa | 0 mm | - | 120 W/m² | - |
| 1777469950 | 19.44° C | 99% | 1018 hPa | 0 mm | - | 229 W/m² | - |
* Rain latest hour (hover to see other rain measurements)
** Current wind speed in m/s (hover to see current wind gust speed)